Time,TemperatureF,DewpointF,PressureIn,WindDirection,WindDirectionDegrees,WindSpeedMPH,WindSpeedGustMPH,Humidity,HourlyPrecipIn,Conditions,Clouds,dailyrainin,SoftwareType,DateUTC
2013-06-26 00:01:00,69.0,64.3,30.28,West,270,1.5,0.0,85,0.00,,CLR,0.00,VWS V13.01,2013-06-26 04:01:00,
2013-06-26 00:02:00,69.0,64.3,30.28,West,270,1.5,0.0,85,0.00,,CLR,0.00,VWS V13.01,2013-06-26 04:02:00,
2013-06-26 00:07:00,69.0,64.3,30.28,West,270,1.5,0.0,85,0.00,,CLR,0.00,VWS V13.01,2013-06-26 04:07:00,
2013-06-26 00:12:00,68.7,64.2,30.28,West,270,1.5,0.0,86,0.00,,CLR,0.00,VWS V13.01,2013-06-26 04:12:00,
2013-06-26 00:17:00,68.7,64.0,30.28,West,270,1.5,0.0,85,0.00,,CLR,0.00,VWS V13.01,2013-06-26 04:17:00,
2013-06-26 00:22:00,68.5,63.8,30.27,West,270,1.5,0.0,85,0.00,,CLR,0.00,VWS V13.01,2013-06-26 04:22:00,
2013-06-26 00:27:00,68.3,63.8,30.27,West,270,1.5,0.0,85,0.00,,CLR,0.00,VWS V13.01,2013-06-26 04:27:00,
2013-06-26 00:32:00,68.3,63.8,30.27,West,270,1.5,0.0,86,0.00,,,0.00,VWS V13.01,2013-06-26 04:32:00,
2013-06-26 00:37:00,68.1,63.8,30.27,West,270,1.5,0.0,86,0.00,,,0.00,VWS V13.01,2013-06-26 04:37:00,
2013-06-26 00:42:00,68.1,63.8,30.27,WSW,248,1.5,0.0,86,0.00,,,0.00,VWS V13.01,2013-06-26 04:42:00,
2013-06-26 00:47:00,68.1,63.8,30.27,WSW,248,1.5,0.0,86,0.00,,,0.00,VWS V13.01,2013-06-26 04:47:00,
2013-06-26 00:52:00,68.3,63.8,30.27,South,180,1.5,0.0,87,0.00,,,0.00,VWS V13.01,2013-06-26 04:52:00,
2013-06-26 00:58:00,68.5,63.8,30.27,South,180,1.5,0.0,87,0.00,,,0.00,VWS V13.01,2013-06-26 04:58:00,
2013-06-26 01:03:00,68.5,63.8,30.27,South,180,1.5,0.0,87,0.00,,CLR,0.00,VWS V13.01,2013-06-26 05:03:00,
2013-06-26 01:08:00,68.5,64.5,30.26,SSE,158,1.5,0.0,88,0.00,,CLR,0.00,VWS V13.01,2013-06-26 05:08:00,
2013-06-26 01:13:00,68.5,64.5,30.27,SSE,158,1.5,0.0,88,0.00,,CLR,0.00,VWS V13.01,2013-06-26 05:13:00,
2013-06-26 01:18:00,68.5,64.8,30.26,South,180,1.5,0.0,88,0.00,,CLR,0.00,VWS V13.01,2013-06-26 05:18:00,
2013-06-26 01:23:00,68.5,64.8,30.26,South,180,1.5,0.0,88,0.00,,CLR,0.00,VWS V13.01,2013-06-26 05:23:00,
2013-06-26 01:28:00,68.5,64.8,30.26,South,180,1.5,0.0,88,0.00,,CLR,0.00,VWS V13.01,2013-06-26 05:28:00,
2013-06-26 01:33:00,68.5,64.8,30.26,South,180,1.5,0.0,88,0.00,,,0.00,VWS V13.01,2013-06-26 05:33:00,
2013-06-26 01:38:00,68.5,64.8,30.27,SW,225,1.5,0.0,88,0.00,,,0.00,VWS V13.01,2013-06-26 05:38:00,
2013-06-26 01:43:00,68.5,64.8,30.27,SW,225,1.5,0.0,88,0.00,,,0.00,VWS V13.01,2013-06-26 05:43:00,
2013-06-26 01:48:00,68.3,64.8,30.28,WSW,248,1.5,0.0,89,0.00,,,0.00,VWS V13.01,2013-06-26 05:48:00,
2013-06-26 01:53:00,68.3,64.6,30.28,WSW,248,1.5,0.0,88,0.00,,,0.00,VWS V13.01,2013-06-26 05:53:00,
2013-06-26 01:58:00,68.3,64.6,30.27,WSW,248,1.5,0.0,88,0.00,,,0.00,VWS V13.01,2013-06-26 05:58:00,
2013-06-26 02:03:00,68.3,64.4,30.27,WSW,248,1.5,0.0,88,0.00,,,0.00,VWS V13.01,2013-06-26 06:03:00,
2013-06-26 02:08:00,68.1,64.4,30.27,WSW,248,1.5,0.0,88,0.00,,,0.00,VWS V13.01,2013-06-26 06:08:00,
2013-06-26 02:13:00,68.1,64.3,30.26,WSW,248,1.5,0.0,88,0.00,,,0.00,VWS V13.01,2013-06-26 06:13:00,
2013-06-26 02:18:00,68.1,64.1,30.25,SW,225,1.5,0.0,88,0.00,,,0.00,VWS V13.01,2013-06-26 06:18:00,
2013-06-26 02:23:00,67.8,63.9,30.26,SW,225,1.5,0.0,88,0.00,,,0.00,VWS V13.01,2013-06-26 06:23:00,
2013-06-26 02:28:00,67.6,63.9,30.25,SW,225,1.5,0.0,88,0.00,,,0.00,VWS V13.01,2013-06-26 06:28:00,
2013-06-26 02:33:00,67.6,63.7,30.25,SW,225,1.5,0.0,88,0.00,,,0.00,VWS V13.01,2013-06-26 06:33:00,
2013-06-26 02:38:00,67.6,63.5,30.25,SW,225,1.5,0.0,88,0.00,,,0.00,VWS V13.01,2013-06-26 06:38:00,
2013-06-26 02:43:00,67.1,63.4,30.25,SW,225,1.5,0.0,88,0.00,,,0.00,VWS V13.01,2013-06-26 06:43:00,
2013-06-26 02:48:00,67.1,63.2,30.25,SW,225,1.5,0.0,88,0.00,,,0.00,VWS V13.01,2013-06-26 06:48:00,
2013-06-26 02:53:00,66.9,63.0,30.25,SW,225,1.5,0.0,88,0.00,,,0.00,VWS V13.01,2013-06-26 06:53:00,
2013-06-26 02:58:00,66.7,63.2,30.25,SW,225,1.5,0.0,88,0.00,,,0.00,VWS V13.01,2013-06-26 06:58:00,
2013-06-26 03:03:00,66.7,63.0,30.24,SW,225,1.5,0.0,88,0.00,,,0.00,VWS V13.01,2013-06-26 07:03:00,
2013-06-26 03:08:00,66.7,62.8,30.24,SW,225,1.5,0.0,88,0.00,,,0.00,VWS V13.01,2013-06-26 07:08:00,
2013-06-26 03:13:00,66.7,62.6,30.24,SW,225,1.5,0.0,88,0.00,,,0.00,VWS V13.01,2013-06-26 07:13:00,
2013-06-26 03:18:00,66.7,62.6,30.24,WSW,248,1.5,0.0,88,0.00,,,0.00,VWS V13.01,2013-06-26 07:18:00,
2013-06-26 03:23:00,66.7,62.5,30.24,WSW,248,1.5,0.0,88,0.00,,,0.00,VWS V13.01,2013-06-26 07:23:00,
2013-06-26 03:28:00,66.7,62.7,30.24,WSW,248,1.5,0.0,88,0.00,,,0.00,VWS V13.01,2013-06-26 07:28:00,
2013-06-26 03:33:00,66.7,62.7,30.24,WSW,248,1.5,0.0,88,0.00,,BKN008,0.00,VWS V13.01,2013-06-26 07:33:00,
2013-06-26 03:38:00,66.0,62.7,30.24,North,0,1.5,0.0,89,0.00,,BKN008,0.00,VWS V13.01,2013-06-26 07:38:00,
2013-06-26 03:43:00,66.0,62.7,30.24,WSW,248,1.5,0.0,89,0.00,,BKN008,0.00,VWS V13.01,2013-06-26 07:43:00,
2013-06-26 03:48:00,66.0,62.7,30.23,WSW,248,1.5,0.0,89,0.00,,BKN008,0.00,VWS V13.01,2013-06-26 07:48:00,
2013-06-26 03:53:00,66.0,62.7,30.23,WSW,248,1.5,0.0,89,0.00,,BKN008,0.00,VWS V13.01,2013-06-26 07:53:00,
2013-06-26 03:58:00,66.0,62.9,30.24,WSW,248,1.5,0.0,89,0.00,,BKN008,0.00,VWS V13.01,2013-06-26 07:58:00,
2013-06-26 04:03:00,66.2,63.0,30.23,WSW,248,1.5,0.0,89,0.00,,,0.00,VWS V13.01,2013-06-26 08:03:00,
2013-06-26 04:08:00,66.3,63.0,30.23,WSW,248,1.5,0.0,89,0.00,,,0.00,VWS V13.01,2013-06-26 08:08:00,
2013-06-26 04:13:00,66.3,63.2,30.23,WSW,248,1.5,0.0,89,0.00,,,0.00,VWS V13.01,2013-06-26 08:13:00,
2013-06-26 04:18:00,66.5,63.2,30.23,WSW,248,1.5,0.0,89,0.00,,,0.00,VWS V13.01,2013-06-26 08:18:00,
2013-06-26 04:23:00,66.5,63.5,30.23,WSW,248,1.5,0.0,89,0.00,,,0.00,VWS V13.01,2013-06-26 08:23:00,
2013-06-26 04:28:00,66.5,63.5,30.23,WSW,248,1.5,0.0,89,0.00,,,0.00,VWS V13.01,2013-06-26 08:28:00,
2013-06-26 04:33:00,66.5,63.5,30.23,WSW,248,1.5,0.0,89,0.00,,,0.00,VWS V13.01,2013-06-26 08:33:00,
2013-06-26 04:38:00,66.5,63.3,30.24,WSW,248,1.5,0.0,90,0.00,,,0.00,VWS V13.01,2013-06-26 08:38:00,
2013-06-26 04:43:00,66.5,63.3,30.23,WSW,248,1.5,0.0,90,0.00,,,0.00,VWS V13.01,2013-06-26 08:43:00,
2013-06-26 04:48:00,66.5,63.3,30.24,WSW,248,1.5,0.0,90,0.00,,,0.00,VWS V13.01,2013-06-26 08:48:00,
2013-06-26 04:53:00,66.3,63.3,30.24,WSW,248,1.5,0.0,90,0.00,,,0.00,VWS V13.01,2013-06-26 08:53:00,
2013-06-26 04:58:00,66.3,63.3,30.25,WSW,248,1.5,0.0,90,0.00,,,0.00,VWS V13.01,2013-06-26 08:58:00,
2013-06-26 05:03:00,66.3,63.8,30.25,West,270,1.5,0.0,90,0.00,,,0.00,VWS V13.01,2013-06-26 09:03:00,
2013-06-26 05:08:00,66.3,63.8,30.25,West,270,1.5,0.0,91,0.00,,,0.00,VWS V13.01,2013-06-26 09:08:00,
2013-06-26 05:13:00,66.3,63.6,30.25,WNW,292,1.5,0.0,91,0.00,,,0.00,VWS V13.01,2013-06-26 09:13:00,
2013-06-26 05:18:00,66.3,63.6,30.25,WNW,292,1.5,0.0,91,0.00,,,0.00,VWS V13.01,2013-06-26 09:18:00,
2013-06-26 05:23:00,66.3,63.6,30.25,WNW,292,1.5,0.0,91,0.00,,,0.00,VWS V13.01,2013-06-26 09:23:00,
2013-06-26 05:28:00,66.3,63.6,30.25,WSW,248,1.5,0.0,91,0.00,,,0.00,VWS V13.01,2013-06-26 09:28:00,
2013-06-26 05:33:00,66.3,63.6,30.25,WSW,248,1.5,0.0,91,0.00,,,0.00,VWS V13.01,2013-06-26 09:33:00,
2013-06-26 05:38:00,66.3,63.6,30.25,WSW,248,1.5,0.0,91,0.00,,,0.00,VWS V13.01,2013-06-26 09:38:00,
2013-06-26 05:43:00,66.3,63.6,30.25,WSW,248,1.5,0.0,91,0.00,,,0.00,VWS V13.01,2013-06-26 09:43:00,
2013-06-26 05:48:00,66.3,63.6,30.25,WSW,248,1.5,0.0,91,0.00,,,0.00,VWS V13.01,2013-06-26 09:48:00,
2013-06-26 05:53:00,66.3,63.6,30.25,WSW,248,1.5,0.0,91,0.00,,,0.00,VWS V13.01,2013-06-26 09:53:00,
2013-06-26 05:58:00,66.2,63.6,30.25,WSW,248,1.5,0.0,91,0.00,,,0.00,VWS V13.01,2013-06-26 09:58:00,
2013-06-26 06:03:00,66.2,63.5,30.25,South,180,1.5,0.0,91,0.00,,,0.00,VWS V13.01,2013-06-26 10:03:00,
2013-06-26 06:08:00,66.2,63.5,30.25,South,180,1.5,0.0,91,0.00,,,0.00,VWS V13.01,2013-06-26 10:08:00,
2013-06-26 06:13:00,66.0,63.5,30.25,South,180,1.5,0.0,91,0.00,,,0.00,VWS V13.01,2013-06-26 10:13:00,
2013-06-26 06:18:00,66.0,63.5,30.25,South,180,1.5,0.0,91,0.00,,,0.00,VWS V13.01,2013-06-26 10:18:00,
2013-06-26 06:23:00,66.0,63.3,30.25,South,180,1.5,0.0,91,0.00,,,0.00,VWS V13.01,2013-06-26 10:23:00,
2013-06-26 06:29:00,66.0,63.3,30.25,South,180,1.5,0.0,91,0.00,,,0.00,VWS V13.01,2013-06-26 10:29:00,
2013-06-26 06:34:00,66.0,63.3,30.25,South,180,1.5,0.0,91,0.00,,,0.00,VWS V13.01,2013-06-26 10:34:00,
2013-06-26 06:39:00,66.0,63.3,30.25,South,180,1.5,0.0,91,0.00,,,0.00,VWS V13.01,2013-06-26 10:39:00,
2013-06-26 06:44:00,66.0,63.3,30.25,South,180,1.5,0.0,91,0.00,,,0.00,VWS V13.01,2013-06-26 10:44:00,
2013-06-26 06:49:00,66.0,63.3,30.26,South,180,1.5,0.0,91,0.00,,,0.00,VWS V13.01,2013-06-26 10:49:00,
2013-06-26 06:54:00,66.0,63.6,30.25,South,180,1.5,0.0,92,0.00,,,0.00,VWS V13.01,2013-06-26 10:54:00,
2013-06-26 06:59:00,66.0,63.6,30.25,South,180,1.5,0.0,92,0.00,,,0.00,VWS V13.01,2013-06-26 10:59:00,
2013-06-26 07:04:00,66.0,63.6,30.25,South,180,1.5,0.0,92,0.00,,,0.00,VWS V13.01,2013-06-26 11:04:00,
2013-06-26 07:09:00,66.0,63.6,30.26,South,180,1.5,0.0,92,0.00,,,0.00,VWS V13.01,2013-06-26 11:09:00,
2013-06-26 07:14:00,66.0,63.6,30.26,South,180,1.5,0.0,92,0.00,,,0.00,VWS V13.01,2013-06-26 11:14:00,
2013-06-26 07:19:00,66.0,63.6,30.26,South,180,1.5,0.0,92,0.00,,,0.00,VWS V13.01,2013-06-26 11:19:00,
2013-06-26 07:24:00,66.2,63.6,30.26,SW,225,1.5,0.0,92,0.00,,,0.00,VWS V13.01,2013-06-26 11:24:00,
2013-06-26 07:29:00,66.2,63.8,30.25,SW,225,1.5,0.0,92,0.00,,,0.00,VWS V13.01,2013-06-26 11:29:00,
2013-06-26 07:34:00,66.2,63.9,30.26,SSE,158,1.5,0.0,92,0.00,,,0.00,VWS V13.01,2013-06-26 11:34:00,
2013-06-26 07:39:00,66.3,63.9,30.25,SW,225,1.5,0.0,92,0.00,,,0.00,VWS V13.01,2013-06-26 11:39:00,
2013-06-26 07:44:00,66.5,63.9,30.25,SSE,158,1.5,0.0,92,0.00,,,0.00,VWS V13.01,2013-06-26 11:44:00,
2013-06-26 07:49:00,66.3,64.3,30.25,SSE,158,1.5,0.0,92,0.00,,,0.00,VWS V13.01,2013-06-26 11:49:00,
2013-06-26 07:54:00,66.7,64.3,30.25,South,180,1.5,0.0,92,0.00,,,0.00,VWS V13.01,2013-06-26 11:54:00,
2013-06-26 08:00:00,66.9,64.3,30.25,SSW,202,1.3,0.0,92,0.00,,,0.00,VWS V13.01,2013-06-26 12:00:00,
2013-06-26 08:05:00,67.1,64.3,30.25,SSE,158,3.5,0.0,92,0.00,,,0.00,VWS V13.01,2013-06-26 12:05:00,
2013-06-26 08:10:00,67.1,64.8,30.25,South,180,4.4,0.0,92,0.00,,,0.00,VWS V13.01,2013-06-26 12:10:00,
2013-06-26 08:15:00,67.2,64.7,30.25,WSW,248,1.1,0.0,92,0.00,,,0.00,VWS V13.01,2013-06-26 12:15:00,
2013-06-26 08:20:00,67.1,65.2,30.25,SE,135,1.1,0.0,92,0.00,,,0.00,VWS V13.01,2013-06-26 12:20:00,
2013-06-26 08:25:00,67.8,65.2,30.25,South,180,1.1,0.0,91,0.00,,,0.00,VWS V13.01,2013-06-26 12:25:00,
2013-06-26 08:30:00,67.8,65.1,30.25,SSE,158,1.1,0.0,91,0.00,,,0.00,VWS V13.01,2013-06-26 12:30:00,
2013-06-26 08:35:00,67.8,65.1,30.25,SW,225,1.1,0.0,91,0.00,,SCT100,0.00,VWS V13.01,2013-06-26 12:35:00,
2013-06-26 08:40:00,67.8,65.1,30.25,SSW,202,2.6,0.0,91,0.00,,SCT100,0.00,VWS V13.01,2013-06-26 12:40:00,
2013-06-26 08:45:00,67.8,65.1,30.25,SSE,158,2.6,0.0,91,0.00,,SCT100,0.00,VWS V13.01,2013-06-26 12:45:00,
2013-06-26 08:50:00,67.8,65.1,30.25,SSE,158,2.6,0.0,91,0.00,,SCT100,0.00,VWS V13.01,2013-06-26 12:50:00,
2013-06-26 08:55:00,68.1,65.4,30.24,South,180,2.6,0.0,91,0.00,,SCT100,0.00,VWS V13.01,2013-06-26 12:55:00,
2013-06-26 09:00:00,68.3,65.4,30.25,South,180,2.6,0.0,91,0.00,,SCT100,0.00,VWS V13.01,2013-06-26 13:00:00,
2013-06-26 09:05:00,68.7,65.6,30.25,South,180,2.6,0.0,91,0.00,,BKN100,0.00,VWS V13.01,2013-06-26 13:05:00,
2013-06-26 09:10:00,68.3,66.3,30.25,South,180,2.6,0.0,91,0.00,,BKN100,0.00,VWS V13.01,2013-06-26 13:10:00,
2013-06-26 09:16:00,68.3,66.2,30.25,South,180,2.6,0.0,91,0.00,,BKN100,0.00,VWS V13.01,2013-06-26 13:16:00,
2013-06-26 09:21:00,69.4,66.3,30.25,SSE,158,2.6,0.0,90,0.00,,BKN100,0.00,VWS V13.01,2013-06-26 13:21:00,
2013-06-26 09:26:00,69.4,66.3,30.25,NW,315,0.8,0.0,90,0.00,,BKN100,0.00,VWS V13.01,2013-06-26 13:26:00,
2013-06-26 09:31:00,69.4,66.5,30.25,WSW,248,3.8,0.0,90,0.00,,BKN100,0.00,VWS V13.01,2013-06-26 13:31:00,
2013-06-26 09:36:00,69.6,66.7,30.25,NW,315,4.4,0.0,89,0.00,,BKN027,0.00,VWS V13.01,2013-06-26 13:36:00,
2013-06-26 09:41:00,70.1,66.8,30.25,WSW,248,0.2,0.0,90,0.00,,BKN027,0.00,VWS V13.01,2013-06-26 13:41:00,
2013-06-26 09:46:00,69.9,66.9,30.25,WSW,248,1.3,0.0,90,0.00,,BKN027,0.00,VWS V13.01,2013-06-26 13:46:00,
2013-06-26 09:51:00,70.7,67.3,30.25,SW,225,2.0,0.0,89,0.00,,BKN027,0.00,VWS V13.01,2013-06-26 13:51:00,
2013-06-26 09:56:00,70.8,67.4,30.25,SSE,158,3.5,0.0,89,0.00,,BKN027,0.00,VWS V13.01,2013-06-26 13:56:00,
2013-06-26 10:01:00,70.8,67.5,30.25,NW,315,0.8,0.0,89,0.00,,BKN027,0.00,VWS V13.01,2013-06-26 14:01:00,
2013-06-26 10:06:00,70.8,67.3,30.25,SSW,202,3.1,0.0,89,0.00,,OVC021,0.00,VWS V13.01,2013-06-26 14:06:00,
2013-06-26 10:11:00,71.4,67.5,30.25,WNW,292,3.1,0.0,87,0.00,,OVC021,0.00,VWS V13.01,2013-06-26 14:11:00,
2013-06-26 10:16:00,71.4,67.6,30.25,West,270,3.3,0.0,87,0.00,,OVC021,0.00,VWS V13.01,2013-06-26 14:16:00,
2013-06-26 10:21:00,71.7,67.8,30.24,SW,225,4.0,0.0,87,0.00,,OVC021,0.00,VWS V13.01,2013-06-26 14:21:00,
2013-06-26 10:26:00,71.7,67.7,30.24,West,270,3.3,0.0,87,0.00,,OVC021,0.00,VWS V13.01,2013-06-26 14:26:00,
2013-06-26 10:31:00,71.7,67.9,30.24,West,270,0.6,0.0,87,0.00,,OVC021,0.00,VWS V13.01,2013-06-26 14:31:00,
2013-06-26 10:36:00,72.6,67.6,30.25,South,180,2.0,0.0,86,0.00,,BKN032,0.00,VWS V13.01,2013-06-26 14:36:00,
2013-06-26 10:41:00,72.6,68.6,30.25,SSE,158,5.5,0.0,86,0.00,,BKN032,0.00,VWS V13.01,2013-06-26 14:41:00,
2013-06-26 10:46:00,72.6,68.6,30.25,South,180,2.2,0.0,86,0.00,,BKN032,0.00,VWS V13.01,2013-06-26 14:46:00,
2013-06-26 10:51:00,73.0,68.2,30.25,WSW,248,0.6,0.0,86,0.00,,BKN032,0.00,VWS V13.01,2013-06-26 14:51:00,
2013-06-26 10:56:00,73.0,68.6,30.25,West,270,0.6,0.0,86,0.00,,BKN032,0.00,VWS V13.01,2013-06-26 14:56:00,
2013-06-26 11:01:00,73.2,68.8,30.25,WSW,248,2.4,0.0,86,0.00,,BKN032,0.00,VWS V13.01,2013-06-26 15:01:00,
2013-06-26 11:06:00,73.2,68.7,30.25,South,180,2.4,0.0,86,0.00,,BKN032,0.00,VWS V13.01,2013-06-26 15:06:00,
2013-06-26 11:11:00,73.9,68.8,30.25,South,180,3.5,0.0,85,0.00,,BKN032,0.00,VWS V13.01,2013-06-26 15:11:00,
2013-06-26 11:16:00,73.9,69.1,30.24,West,270,0.8,0.0,84,0.00,,BKN032,0.00,VWS V13.01,2013-06-26 15:16:00,
2013-06-26 11:21:00,74.1,69.0,30.24,NW,315,0.8,0.0,84,0.00,,BKN032,0.00,VWS V13.01,2013-06-26 15:21:00,
2013-06-26 11:26:00,74.3,69.0,30.24,WSW,248,0.8,0.0,84,0.00,,BKN032,0.00,VWS V13.01,2013-06-26 15:26:00,
2013-06-26 11:31:00,74.1,69.4,30.25,NNW,338,0.8,0.0,84,0.00,,BKN032,0.00,VWS V13.01,2013-06-26 15:31:00,
2013-06-26 11:36:00,75.0,69.5,30.25,WSW,248,0.8,0.0,83,0.00,,BKN037,0.00,VWS V13.01,2013-06-26 15:36:00,
2013-06-26 11:41:00,75.3,69.8,30.25,West,270,2.9,0.0,83,0.00,,BKN037,0.00,VWS V13.01,2013-06-26 15:41:00,
2013-06-26 11:46:00,75.3,69.8,30.24,SSW,202,4.4,0.0,83,0.00,,BKN037,0.00,VWS V13.01,2013-06-26 15:46:00,
2013-06-26 11:51:00,75.7,70.0,30.24,West,270,4.4,0.0,82,0.00,,BKN037,0.00,VWS V13.01,2013-06-26 15:51:00,
2013-06-26 11:56:00,76.1,70.3,30.24,SW,225,4.4,0.0,82,0.00,,BKN037,0.00,VWS V13.01,2013-06-26 15:56:00,
2013-06-26 12:01:00,76.8,70.3,30.24,NW,315,1.3,0.0,81,0.00,,BKN037,0.00,VWS V13.01,2013-06-26 16:01:00,
2013-06-26 12:06:00,76.6,70.5,30.24,SW,225,2.9,0.0,81,0.00,,BKN032,0.00,VWS V13.01,2013-06-26 16:06:00,
2013-06-26 12:11:00,77.3,70.1,30.24,SSE,158,1.3,0.0,80,0.00,,BKN032,0.00,VWS V13.01,2013-06-26 16:11:00,
2013-06-26 12:16:00,77.1,70.3,30.24,SSW,202,1.3,0.0,79,0.00,,BKN032,0.00,VWS V13.01,2013-06-26 16:16:00,
2013-06-26 12:21:00,77.9,70.6,30.24,South,180,0.8,0.0,78,0.00,,BKN032,0.00,VWS V13.01,2013-06-26 16:21:00,
2013-06-26 12:26:00,77.9,70.5,30.24,NW,315,5.5,0.0,78,0.00,,BKN032,0.00,VWS V13.01,2013-06-26 16:26:00,
2013-06-26 12:31:00,77.9,70.5,30.24,WSW,248,4.0,0.0,78,0.00,,BKN032,0.00,VWS V13.01,2013-06-26 16:31:00,
2013-06-26 12:36:00,77.9,70.5,30.24,SW,225,2.6,0.0,78,0.00,,SCT037,0.00,VWS V13.01,2013-06-26 16:36:00,
2013-06-26 12:41:00,77.9,70.1,30.24,WSW,248,2.6,0.0,77,0.00,,SCT037,0.00,VWS V13.01,2013-06-26 16:41:00,
2013-06-26 12:46:00,77.9,70.3,30.24,SSE,158,6.2,0.0,78,0.00,,SCT037,0.00,VWS V13.01,2013-06-26 16:46:00,
2013-06-26 12:51:00,77.9,70.5,30.24,SW,225,2.6,0.0,78,0.00,,SCT037,0.00,VWS V13.01,2013-06-26 16:51:00,
2013-06-26 12:56:00,77.9,70.5,30.23,WSW,248,2.4,0.0,78,0.00,,SCT037,0.00,VWS V13.01,2013-06-26 16:56:00,
2013-06-26 13:01:00,77.7,69.9,30.23,WSW,248,1.3,0.0,78,0.00,,SCT037,0.00,VWS V13.01,2013-06-26 17:01:00,
2013-06-26 13:06:00,77.7,69.3,30.23,WSW,248,0.4,0.0,78,0.00,,BKN038,0.00,VWS V13.01,2013-06-26 17:06:00,
2013-06-26 13:11:00,77.0,69.1,30.23,NW,315,2.9,0.0,77,0.00,,BKN038,0.00,VWS V13.01,2013-06-26 17:11:00,
2013-06-26 13:16:00,77.0,69.2,30.24,NW,315,6.0,0.0,77,0.00,,BKN038,0.00,VWS V13.01,2013-06-26 17:16:00,
2013-06-26 13:21:00,77.0,69.2,30.23,WSW,248,2.9,0.0,77,0.00,,BKN038,0.00,VWS V13.01,2013-06-26 17:21:00,
2013-06-26 13:26:00,76.8,69.2,30.23,WNW,292,5.5,0.0,78,0.00,,BKN038,0.00,VWS V13.01,2013-06-26 17:26:00,
2013-06-26 13:31:00,77.0,68.6,30.23,NW,315,7.1,0.0,77,0.00,,BKN038,0.00,VWS V13.01,2013-06-26 17:31:00,
2013-06-26 13:36:00,77.0,68.4,30.23,WNW,292,6.2,0.0,77,0.00,,BKN075,0.00,VWS V13.01,2013-06-26 17:36:00,
2013-06-26 13:41:00,77.0,68.2,30.22,NW,315,4.0,0.0,77,0.00,,BKN075,0.00,VWS V13.01,2013-06-26 17:41:00,
2013-06-26 13:46:00,78.4,68.4,30.23,NW,315,7.3,0.0,72,0.00,,BKN075,0.00,VWS V13.01,2013-06-26 17:46:00,
2013-06-26 13:51:00,78.6,68.3,30.23,WNW,292,5.5,0.0,71,0.00,,BKN075,0.00,VWS V13.01,2013-06-26 17:51:00,
2013-06-26 13:56:00,78.6,68.5,30.22,WSW,248,2.2,0.0,71,0.00,,BKN075,0.00,VWS V13.01,2013-06-26 17:56:00,
2013-06-26 14:01:00,79.3,68.3,30.22,WNW,292,5.5,0.0,69,0.00,,BKN075,0.00,VWS V13.01,2013-06-26 18:01:00,
2013-06-26 14:06:00,78.9,68.3,30.22,NW,315,3.8,0.0,69,0.00,,BKN070,0.00,VWS V13.01,2013-06-26 18:06:00,
2013-06-26 14:11:00,78.6,67.6,30.22,NW,315,4.2,0.0,70,0.00,,BKN070,0.00,VWS V13.01,2013-06-26 18:11:00,
2013-06-26 14:16:00,77.5,68.0,30.22,NW,315,5.1,0.0,70,0.00,,BKN070,0.00,VWS V13.01,2013-06-26 18:16:00,
2013-06-26 14:21:00,77.1,67.3,30.22,NW,315,5.1,0.0,72,0.00,,BKN070,0.00,VWS V13.01,2013-06-26 18:21:00,
2013-06-26 14:26:00,76.8,66.9,30.22,NW,315,7.3,0.0,73,0.00,,BKN070,0.00,VWS V13.01,2013-06-26 18:26:00,
2013-06-26 14:31:00,76.2,67.5,30.23,WSW,248,4.6,0.0,71,0.00,,BKN070,0.00,VWS V13.01,2013-06-26 18:31:00,
2013-06-26 14:36:00,75.9,67.5,30.23,West,270,2.6,0.0,72,0.00,,BKN075,0.00,VWS V13.01,2013-06-26 18:36:00,
2013-06-26 14:41:00,75.5,66.1,30.23,WNW,292,1.7,0.0,73,0.00,,BKN075,0.00,VWS V13.01,2013-06-26 18:41:00,
2013-06-26 14:46:00,75.5,66.0,30.23,WSW,248,4.6,0.0,73,0.00,,BKN075,0.00,VWS V13.01,2013-06-26 18:46:00,
2013-06-26 14:51:00,75.5,65.9,30.23,NW,315,6.7,0.0,73,0.00,,BKN075,0.00,VWS V13.01,2013-06-26 18:51:00,
2013-06-26 14:56:00,73.9,66.2,30.22,WNW,292,3.8,0.0,76,0.00,,BKN075,0.00,VWS V13.01,2013-06-26 18:56:00,
2013-06-26 15:01:00,73.9,66.4,30.22,WSW,248,4.2,0.0,77,0.00,,BKN075,0.00,VWS V13.01,2013-06-26 19:01:00,
2013-06-26 15:06:00,73.9,66.2,30.21,NW,315,5.5,0.0,77,0.00,,OVC075,0.00,VWS V13.01,2013-06-26 19:06:00,
2013-06-26 15:11:00,73.5,66.2,30.20,NW,315,0.6,0.0,78,0.00,,OVC075,0.00,VWS V13.01,2013-06-26 19:11:00,
2013-06-26 15:16:00,73.2,66.3,30.20,NW,315,3.3,0.0,79,0.00,,OVC075,0.00,VWS V13.01,2013-06-26 19:16:00,
2013-06-26 15:21:00,73.2,66.3,30.20,NW,315,2.2,0.0,79,0.00,,OVC075,0.00,VWS V13.01,2013-06-26 19:21:00,
2013-06-26 15:26:00,73.2,66.7,30.21,West,270,2.2,0.0,79,0.00,,OVC075,0.00,VWS V13.01,2013-06-26 19:26:00,
2013-06-26 15:31:00,73.2,66.7,30.22,SW,225,0.6,0.0,79,0.00,,OVC075,0.00,VWS V13.01,2013-06-26 19:31:00,
2013-06-26 15:36:00,73.2,66.7,30.22,WNW,292,0.2,0.0,80,0.00,,BKN090,0.00,VWS V13.01,2013-06-26 19:36:00,
2013-06-26 15:42:00,73.2,66.7,30.22,WNW,292,2.2,0.0,80,0.00,,BKN090,0.00,VWS V13.01,2013-06-26 19:42:00,
2013-06-26 15:47:00,73.2,66.7,30.22,WSW,248,0.4,0.0,80,0.00,,BKN090,0.00,VWS V13.01,2013-06-26 19:47:00,
2013-06-26 15:52:00,73.2,66.9,30.21,SSW,202,1.1,0.0,80,0.00,,BKN090,0.00,VWS V13.01,2013-06-26 19:52:00,
2013-06-26 15:57:00,73.2,67.0,30.21,WSW,248,2.0,0.0,80,0.00,,BKN090,0.00,VWS V13.01,2013-06-26 19:57:00,
2013-06-26 16:02:00,74.3,67.7,30.21,WNW,292,3.8,0.0,81,0.00,,BKN090,0.00,VWS V13.01,2013-06-26 20:02:00,
2013-06-26 16:07:00,74.8,67.9,30.20,WSW,248,4.2,0.0,80,0.00,,BKN120,0.00,VWS V13.01,2013-06-26 20:07:00,
2013-06-26 16:12:00,75.0,68.3,30.20,NNW,338,0.6,0.0,79,0.00,,BKN120,0.00,VWS V13.01,2013-06-26 20:12:00,
2013-06-26 16:17:00,75.5,68.0,30.20,WSW,248,3.3,0.0,78,0.00,,BKN120,0.00,VWS V13.01,2013-06-26 20:17:00,
2013-06-26 16:22:00,75.3,68.0,30.20,WSW,248,2.2,0.0,78,0.00,,BKN120,0.00,VWS V13.01,2013-06-26 20:22:00,
2013-06-26 16:27:00,75.7,68.0,30.20,NW,315,3.1,0.0,77,0.00,,BKN120,0.00,VWS V13.01,2013-06-26 20:27:00,
2013-06-26 16:32:00,75.7,68.0,30.20,WNW,292,3.1,0.0,77,0.00,,BKN120,0.00,VWS V13.01,2013-06-26 20:32:00,
2013-06-26 16:37:00,75.7,68.0,30.20,West,270,3.1,0.0,77,0.00,,BKN100,0.00,VWS V13.01,2013-06-26 20:37:00,
2013-06-26 16:42:00,75.7,68.2,30.19,WSW,248,3.1,0.0,77,0.00,,BKN100,0.00,VWS V13.01,2013-06-26 20:42:00,
2013-06-26 16:47:00,76.1,68.2,30.19,NW,315,0.4,0.0,77,0.00,,BKN100,0.00,VWS V13.01,2013-06-26 20:47:00,
2013-06-26 16:52:00,76.2,68.1,30.20,NW,315,0.4,0.0,77,0.00,,BKN100,0.00,VWS V13.01,2013-06-26 20:52:00,
2013-06-26 16:57:00,76.2,68.1,30.20,NW,315,0.4,0.0,77,0.00,,BKN100,0.00,VWS V13.01,2013-06-26 20:57:00,
2013-06-26 17:02:00,76.6,68.5,30.20,WSW,248,0.8,0.0,76,0.00,,BKN100,0.00,VWS V13.01,2013-06-26 21:02:00,
2013-06-26 17:07:00,76.6,68.3,30.19,NW,315,3.1,0.0,76,0.00,,CLR,0.00,VWS V13.01,2013-06-26 21:07:00,
2013-06-26 17:12:00,77.0,67.7,30.19,East,90,4.6,0.0,73,0.00,,CLR,0.00,VWS V13.01,2013-06-26 21:12:00,
2013-06-26 17:17:00,77.1,67.7,30.19,West,270,3.1,0.0,73,0.00,,CLR,0.00,VWS V13.01,2013-06-26 21:17:00,
2013-06-26 17:22:00,77.0,67.4,30.19,WNW,292,0.8,0.0,73,0.00,,CLR,0.00,VWS V13.01,2013-06-26 21:22:00,
2013-06-26 17:27:00,77.1,67.4,30.18,West,270,1.7,0.0,72,0.00,,CLR,0.00,VWS V13.01,2013-06-26 21:27:00,
2013-06-26 17:33:00,77.1,67.4,30.18,NW,315,1.7,0.0,72,0.00,,CLR,0.00,VWS V13.01,2013-06-26 21:33:00,
2013-06-26 17:38:00,77.1,67.4,30.18,North,0,0.8,0.0,71,0.00,,CLR,0.00,VWS V13.01,2013-06-26 21:38:00,
2013-06-26 17:43:00,77.0,67.0,30.18,North,0,4.4,0.0,71,0.00,,CLR,0.00,VWS V13.01,2013-06-26 21:43:00,
2013-06-26 17:48:00,76.8,67.0,30.18,NW,315,6.7,0.0,71,0.00,,CLR,0.00,VWS V13.01,2013-06-26 21:48:00,
2013-06-26 17:53:00,77.1,66.7,30.18,WNW,292,1.3,0.0,71,0.00,,CLR,0.00,VWS V13.01,2013-06-26 21:53:00,
2013-06-26 17:58:00,77.1,66.5,30.18,WSW,248,5.3,0.0,71,0.00,,CLR,0.00,VWS V13.01,2013-06-26 21:58:00,
2013-06-26 18:03:00,77.1,66.3,30.17,NW,315,3.8,0.0,71,0.00,,CLR,0.00,VWS V13.01,2013-06-26 22:03:00,
2013-06-26 18:08:00,77.1,66.1,30.17,West,270,4.9,0.0,71,0.00,,CLR,0.00,VWS V13.01,2013-06-26 22:08:00,
2013-06-26 18:13:00,76.2,66.5,30.17,NW,315,7.1,0.0,72,0.00,,CLR,0.00,VWS V13.01,2013-06-26 22:13:00,
2013-06-26 18:18:00,76.2,66.1,30.17,North,0,3.3,0.0,72,0.00,,CLR,0.00,VWS V13.01,2013-06-26 22:18:00,
2013-06-26 18:23:00,76.2,66.3,30.17,West,270,3.5,0.0,71,0.00,,CLR,0.00,VWS V13.01,2013-06-26 22:23:00,
2013-06-26 18:28:00,76.2,66.9,30.17,NW,315,3.5,0.0,71,0.00,,CLR,0.00,VWS V13.01,2013-06-26 22:28:00,
2013-06-26 18:33:00,76.8,67.1,30.17,West,270,4.6,0.0,72,0.00,,CLR,0.00,VWS V13.01,2013-06-26 22:33:00,
2013-06-26 18:38:00,76.8,67.1,30.17,WSW,248,4.6,0.0,72,0.00,,CLR,0.00,VWS V13.01,2013-06-26 22:38:00,
2013-06-26 18:43:00,77.0,67.4,30.17,NW,315,4.6,0.0,72,0.00,,CLR,0.00,VWS V13.01,2013-06-26 22:43:00,
2013-06-26 18:48:00,77.3,67.3,30.17,WSW,248,2.9,0.0,71,0.00,,CLR,0.00,VWS V13.01,2013-06-26 22:48:00,
2013-06-26 18:53:00,77.1,67.3,30.18,West,270,0.4,0.0,71,0.00,,CLR,0.00,VWS V13.01,2013-06-26 22:53:00,
2013-06-26 18:59:00,77.3,67.3,30.18,West,270,0.4,0.0,71,0.00,,CLR,0.00,VWS V13.01,2013-06-26 22:59:00,
2013-06-26 19:04:00,77.5,67.2,30.18,West,270,0.4,0.0,71,0.00,,CLR,0.00,VWS V13.01,2013-06-26 23:04:00,
2013-06-26 19:09:00,77.3,67.4,30.19,NW,315,0.4,0.0,71,0.00,,CLR,0.00,VWS V13.01,2013-06-26 23:09:00,
2013-06-26 19:14:00,77.1,67.2,30.19,NW,315,0.6,0.0,71,0.00,,CLR,0.00,VWS V13.01,2013-06-26 23:14:00,
2013-06-26 19:19:00,76.8,67.2,30.19,NNW,338,0.6,0.0,71,0.00,,CLR,0.00,VWS V13.01,2013-06-26 23:19:00,
2013-06-26 19:24:00,77.0,67.3,30.19,NW,315,1.7,0.0,72,0.00,,CLR,0.00,VWS V13.01,2013-06-26 23:24:00,
2013-06-26 19:29:00,77.0,66.7,30.19,NW,315,2.0,0.0,72,0.00,,CLR,0.00,VWS V13.01,2013-06-26 23:29:00,
2013-06-26 19:34:00,77.0,66.7,30.19,WSW,248,0.6,0.0,72,0.00,,CLR,0.00,VWS V13.01,2013-06-26 23:34:00,
2013-06-26 19:39:00,76.8,66.3,30.18,West,270,0.6,0.0,71,0.00,,CLR,0.00,VWS V13.01,2013-06-26 23:39:00,
2013-06-26 19:44:00,76.8,66.7,30.19,WSW,248,0.6,0.0,70,0.00,,CLR,0.00,VWS V13.01,2013-06-26 23:44:00,
2013-06-26 19:49:00,76.6,66.5,30.18,WSW,248,0.6,0.0,71,0.00,,CLR,0.00,VWS V13.01,2013-06-26 23:49:00,
2013-06-26 19:54:00,76.6,66.7,30.19,SW,225,0.6,0.0,71,0.00,,CLR,0.00,VWS V13.01,2013-06-26 23:54:00,
2013-06-26 19:59:00,76.6,66.4,30.19,SW,225,0.6,0.0,71,0.00,,CLR,0.00,VWS V13.01,2013-06-26 23:59:00,
2013-06-26 20:04:00,76.6,66.6,30.18,SW,225,0.6,0.0,71,0.00,,CLR,0.00,VWS V13.01,2013-06-27 00:04:00,
2013-06-26 20:09:00,75.9,66.1,30.19,SW,225,0.6,0.0,73,0.00,,CLR,0.00,VWS V13.01,2013-06-27 00:09:00,
2013-06-26 20:14:00,75.9,66.3,30.18,SW,225,0.6,0.0,73,0.00,,CLR,0.00,VWS V13.01,2013-06-27 00:14:00,
2013-06-26 20:19:00,75.9,66.2,30.18,SSW,202,0.6,0.0,73,0.00,,CLR,0.00,VWS V13.01,2013-06-27 00:19:00,
2013-06-26 20:24:00,75.9,66.3,30.18,SSW,202,0.6,0.0,73,0.00,,CLR,0.00,VWS V13.01,2013-06-27 00:24:00,
2013-06-26 20:29:00,74.8,66.0,30.18,SSW,202,0.6,0.0,75,0.00,,CLR,0.00,VWS V13.01,2013-06-27 00:29:00,
2013-06-26 20:34:00,74.8,65.7,30.17,SSW,202,0.6,0.0,75,0.00,,CLR,0.00,VWS V13.01,2013-06-27 00:34:00,
2013-06-26 20:39:00,74.8,65.7,30.17,SSW,202,0.6,0.0,75,0.00,,CLR,0.00,VWS V13.01,2013-06-27 00:39:00,
2013-06-26 20:44:00,73.7,65.2,30.17,SSW,202,0.6,0.0,76,0.00,,CLR,0.00,VWS V13.01,2013-06-27 00:44:00,
2013-06-26 20:49:00,73.0,65.4,30.18,SSW,202,0.6,0.0,77,0.00,,CLR,0.00,VWS V13.01,2013-06-27 00:49:00,
2013-06-26 20:54:00,73.0,64.9,30.18,SSW,202,0.6,0.0,77,0.00,,CLR,0.00,VWS V13.01,2013-06-27 00:54:00,
2013-06-26 20:59:00,72.5,65.1,30.18,SSW,202,0.6,0.0,77,0.00,,CLR,0.00,VWS V13.01,2013-06-27 00:59:00,
2013-06-26 21:04:00,72.5,64.9,30.18,SSW,202,0.6,0.0,77,0.00,,CLR,0.00,VWS V13.01,2013-06-27 01:04:00,
2013-06-26 21:09:00,71.9,64.8,30.18,SSW,202,0.6,0.0,79,0.00,,CLR,0.00,VWS V13.01,2013-06-27 01:09:00,
2013-06-26 21:14:00,71.9,65.2,30.18,SSE,158,0.6,0.0,79,0.00,,CLR,0.00,VWS V13.01,2013-06-27 01:14:00,
2013-06-26 21:19:00,71.9,65.1,30.18,SSE,158,0.6,0.0,79,0.00,,CLR,0.00,VWS V13.01,2013-06-27 01:19:00,
2013-06-26 21:24:00,71.9,64.9,30.18,SSE,158,0.6,0.0,79,0.00,,CLR,0.00,VWS V13.01,2013-06-27 01:24:00,
2013-06-26 21:29:00,71.4,65.1,30.18,SSE,158,0.6,0.0,80,0.00,,CLR,0.00,VWS V13.01,2013-06-27 01:29:00,
2013-06-26 21:34:00,71.2,65.1,30.18,SSE,158,0.6,0.0,81,0.00,,CLR,0.00,VWS V13.01,2013-06-27 01:34:00,
2013-06-26 21:39:00,71.2,64.7,30.18,SSE,158,0.6,0.0,81,0.00,,CLR,0.00,VWS V13.01,2013-06-27 01:39:00,
2013-06-26 21:44:00,70.8,64.7,30.18,SSE,158,0.6,0.0,81,0.00,,CLR,0.00,VWS V13.01,2013-06-27 01:44:00,
2013-06-26 21:49:00,70.8,64.8,30.18,SSE,158,0.6,0.0,81,0.00,,CLR,0.00,VWS V13.01,2013-06-27 01:49:00,
2013-06-26 21:54:00,70.8,64.6,30.18,SE,135,0.6,0.0,81,0.00,,CLR,0.00,VWS V13.01,2013-06-27 01:54:00,
2013-06-26 21:59:00,70.3,64.9,30.18,SE,135,0.6,0.0,82,0.00,,CLR,0.00,VWS V13.01,2013-06-27 01:59:00,
2013-06-26 22:04:00,70.3,64.4,30.18,SE,135,0.6,0.0,82,0.00,,CLR,0.00,VWS V13.01,2013-06-27 02:04:00,
2013-06-26 22:09:00,70.3,64.2,30.18,SE,135,0.6,0.0,82,0.00,,CLR,0.00,VWS V13.01,2013-06-27 02:09:00,
2013-06-26 22:14:00,69.9,64.5,30.18,SE,135,0.6,0.0,82,0.00,,CLR,0.00,VWS V13.01,2013-06-27 02:14:00,
2013-06-26 22:19:00,69.9,64.2,30.18,SE,135,0.6,0.0,82,0.00,,CLR,0.00,VWS V13.01,2013-06-27 02:19:00,
2013-06-26 22:24:00,69.6,64.2,30.18,SE,135,0.6,0.0,83,0.00,,CLR,0.00,VWS V13.01,2013-06-27 02:24:00,
2013-06-26 22:29:00,69.6,64.4,30.18,SE,135,0.6,0.0,83,0.00,,CLR,0.00,VWS V13.01,2013-06-27 02:29:00,
2013-06-26 22:34:00,69.0,64.0,30.18,SE,135,0.6,0.0,84,0.00,,CLR,0.00,VWS V13.01,2013-06-27 02:34:00,
2013-06-26 22:39:00,69.0,63.9,30.18,SE,135,0.6,0.0,84,0.00,,CLR,0.00,VWS V13.01,2013-06-27 02:39:00,
2013-06-26 22:44:00,69.0,63.7,30.18,WNW,292,0.6,0.0,84,0.00,,CLR,0.00,VWS V13.01,2013-06-27 02:44:00,
2013-06-26 22:49:00,69.0,63.8,30.18,WNW,292,0.6,0.0,84,0.00,,CLR,0.00,VWS V13.01,2013-06-27 02:49:00,
2013-06-26 22:54:00,68.5,63.6,30.17,WNW,292,0.6,0.0,85,0.00,,CLR,0.00,VWS V13.01,2013-06-27 02:54:00,
2013-06-26 22:59:00,68.5,63.6,30.18,WNW,292,0.6,0.0,85,0.00,,CLR,0.00,VWS V13.01,2013-06-27 02:59:00,
2013-06-26 23:04:00,68.1,63.4,30.18,WNW,292,0.6,0.0,85,0.00,,CLR,0.00,VWS V13.01,2013-06-27 03:04:00,
2013-06-26 23:09:00,68.1,63.4,30.18,WNW,292,0.6,0.0,85,0.00,,CLR,0.00,VWS V13.01,2013-06-27 03:09:00,
2013-06-26 23:14:00,68.1,63.1,30.18,WNW,292,0.6,0.0,85,0.00,,CLR,0.00,VWS V13.01,2013-06-27 03:14:00,
2013-06-26 23:19:00,68.1,63.1,30.19,WNW,292,0.6,0.0,85,0.00,,CLR,0.00,VWS V13.01,2013-06-27 03:19:00,
2013-06-26 23:24:00,68.1,63.5,30.19,WNW,292,0.6,0.0,85,0.00,,CLR,0.00,VWS V13.01,2013-06-27 03:24:00,
2013-06-26 23:29:00,68.1,63.5,30.19,WNW,292,0.6,0.0,85,0.00,,CLR,0.00,VWS V13.01,2013-06-27 03:29:00,
2013-06-26 23:34:00,68.1,63.5,30.19,WNW,292,0.6,0.0,85,0.00,,BKN060,0.00,VWS V13.01,2013-06-27 03:34:00,
2013-06-26 23:39:00,67.8,63.5,30.19,WNW,292,0.6,0.0,86,0.00,,BKN060,0.00,VWS V13.01,2013-06-27 03:39:00,
2013-06-26 23:44:00,67.8,63.3,30.19,WNW,292,0.6,0.0,86,0.00,,BKN060,0.00,VWS V13.01,2013-06-27 03:44:00,
2013-06-26 23:49:00,67.6,63.8,30.19,WNW,292,0.6,0.0,86,0.00,,BKN060,0.00,VWS V13.01,2013-06-27 03:49:00,
2013-06-26 23:54:00,67.8,63.6,30.18,WNW,292,0.6,0.0,87,0.00,,BKN060,0.00,VWS V13.01,2013-06-27 03:54:00,
2013-06-26 23:59:00,67.8,63.6,30.18,WNW,292,0.6,0.0,87,0.00,,BKN060,0.00,VWS V13.01,2013-06-27 03:59:00,